Hourly Data Report for September 24, 2021

TORONTO CITY
ONTARIO
Current Station Operator: ECCC - MSC

43°40'00.000" N
79°24'00.000" W
112.50 m
6158355
71508
XTO

Download Data

Hourly Data (September 2021)
Hourly Data Report for September 24, 2021
TIME
LST
Temp Definition
°C
Dew Point Definition
°C
Rel Hum Definition
%
Precip. Amount Definition
mm

Wind Dir Definition
10's deg

Wind Spd Definition
km/h
Visibility Definition
km
Stn Press Definition
kPa
Hmdx Definition


Wind Chill Definition


Weather Definition


00:00 13.7 12.2 91 0.9       99.56     LegendNANA
01:00 13.5 12.3 92 0.6       99.59     LegendNANA
02:00 13.8 10.3 79 0.4       99.57     LegendNANA
03:00 12.9 9.3 79 0.0       99.60     LegendNANA
04:00 12.7 9.5 81 0.0       99.63     LegendNANA
05:00 12.7 9.2 79 0.0       99.71     LegendNANA
06:00 12.5 8.9 79 0.0       99.74     LegendNANA
07:00 12.5 9.2 80 0.0       99.81     LegendNANA
08:00 12.9 9.3 79 0.0       99.84     LegendNANA
09:00 13.9 9.2 73 0.0       99.87     LegendNANA
10:00 14.6 8.6 67 0.0       99.90     LegendNANA
11:00 15.8 9.0 64 0.0       99.93     LegendNANA
12:00 16.1 8.3 60 0.0       99.93     LegendNANA
13:00 16.1 8.6 61 0.0       99.97     LegendNANA
14:00 16.7 8.4 58 0.0       100.00     LegendNANA
15:00 16.6 9.2 61 0.0       100.05     LegendNANA
16:00 17.0 9.5 62 0.0       100.09     LegendNANA
17:00 16.8 9.1 60 0.0       100.12     LegendNANA
18:00 15.4 9.8 69 0.0       100.14     LegendNANA
19:00 13.7 9.9 77 0.0       100.17     LegendNANA
20:00 13.3 10.4 82 0.0       100.23     LegendNANA
21:00 12.9 10.6 86 0.0       100.24     LegendNANA
22:00 12.9 10.7 87 0.0       100.22     LegendNANA
23:00 12.4 10.5 88 0.0       100.21     LegendNANA

Notes on Data Quality.

Legend

  • E = Estimated
  • M = Missing
  • NA = Not Available*
  • [empty] = Indicates an unobserved value
Date modified: